STAR ONE D2

Last updated on Fri Jun 19 2026 17:09:34 GMT+0000 (Coordinated Universal Time)

1 49055U 21069A 26169.80975734 .00000000 00000+0 00000+0 0 9996 2 49055 0.0153 340.0202 0002032 132.6885 15.7458 1.00270132 17964
UTC large
Height (km)
Speed (km/s)
/
Latitude / Longitude
Inclination (degrees)
Orbital Period (minutes)
Azimuth
Elevation
Range (km)
Doppler Factor

Next 0 passes for location: London (51.5072 / 0.1276)

No passes found over London.
STAR ONE D2